User: anonymous   Login
Location: Hyderabad
(17.3833°N, 78.4667°E)
Time: 12:48:49
(UTC+05:30)
Language:

H-2A R/B - Orbit

View from above orbital plane
View from above orbital plane
View from above satellite
View from above satellite

Ground track
Ground track

The orbit data is extracted from the following two-line orbital elements,

1 26899U 01038B   17178.62131571 +.00001040 +00000-0 +34487-3 0  9990
2 26899 028.3654 060.4658 7120917 195.8447 117.7007 02.48064440136777
Epoch (UTC): 27 June 2017 14:54:41
Eccentricity: 0.7120917
inclination: 28.3654°
perigee height: 258 km
apogee height: 33087 km
right ascension of ascending node: 60.4658°
argument of perigee: 195.8447°
revolutions per day: 2.48064440
mean anomaly at epoch: 117.7007°
orbit number at epoch: 13677

The dashed part of the orbit path shows where the satellite is in the earth's shadow,  

DLR